Location: Mayhill
(33.2043°N, 97.0845°W)
Time: 04:04:29
(UTC+00:00)

Daily predictions for brighter satellites

Satellite Brightness Start Highest point End
(mag) Time Altitude Azimuth Time Altitude Azimuth Time Altitude Azimuth
CZ-3B R/B 4.0 01:17:12 10° WNW 01:21:13 50° SW 01:33:25 10° SSE
CZ-4B R/B 3.7 01:17:31 10° S 01:22:32 75° WSW 01:27:25 10° NNW
APEX 2.6 01:21:23 10° NNW 01:24:33 61° ENE 01:27:27 10° SSE
CZ-4B R/B 4.2 01:24:07 10° SE 01:28:54 29° ENE 01:33:40 10° N
Cosmos 1674 Rocket 3.7 01:27:08 10° N 01:31:31 56° E 01:35:52 10° SSE
Cosmos 1825 3.4 01:29:11 10° NNE 01:31:44 19° ENE 01:34:16 10° SE
USA 234 4.0 01:28:51 10° ESE 01:34:44 37° NE 01:40:37 10° NNW
NOSS 3-1 (C) 3.4 01:30:58 10° S 01:35:06 33° ESE 01:39:41 10° NE
Meteor 2-11 Rocket 4.4 01:30:37 10° N 01:36:42 72° E 01:42:44 10° SSE
Hubble Space Telescope 1.4 01:34:48 10° WSW 01:38:31 37° S 01:41:39 13° ESE
Cosmos 2082 Rocket 3.2 01:33:38 10° NNW 01:39:09 51° WSW 01:44:36 10° S
Resurs 1-3 3.7 01:37:36 10° SSE 01:41:49 53° ENE 01:46:04 10° N
[s.n.70599] 2.2 01:41:58 10° WNW 01:44:30 74° NNE 01:46:07 19° ESE
IKONOS-2 4.4 01:45:22 10° NNE 01:49:35 81° E 01:53:46 10° S
Okean O Rocket 2.7 01:49:28 16° ESE 01:51:53 25° ENE 01:55:24 10° NNE
Cosmos 1025 Rocket 3.7 01:48:22 10° NNE 01:52:21 33° E 01:55:30 15° SE
ATLAS 3B R/B 3.3 01:50:23 10° S 01:56:16 32° ESE 02:02:33 10° NE
Resurs 01 Rocket 2.5 01:55:01 17° ESE 01:57:30 30° ENE 02:01:19 10° NNE
YAOGAN 1 4.3 01:54:00 10° SSW 01:57:53 33° W 02:01:46 10° NNW
Cosmos 2218 Rocket 4.4 01:52:03 10° N 01:58:06 43° E 02:03:54 11° SSE
Cosmos 1346 Rocket 2.6 01:56:29 10° S 02:00:18 76° E 02:04:07 10° NNE
SJ-6B 2.9 01:58:11 10° S 02:02:06 81° W 02:06:04 10° NNW
USA 281 4.1 01:59:34 17° ESE 02:03:28 31° ENE 02:09:03 10° N
Cosmos 1975 Rocket 4.2 02:00:55 10° NNE 02:04:24 23° ENE 02:05:12 22° E
Cosmos 1302 Rocket 4.1 01:59:55 10° SSW 02:05:10 80° WNW 02:10:27 10° NNE
USA 129 4.5 02:05:08 10° NNE 02:05:09 10° NNE 02:05:09 10° NNE
Cosmos 1328 3.8 02:06:05 10° N 02:09:46 52° E 02:11:47 24° SSE
OAO 3 Rocket 3.4 02:05:31 10° W 02:10:23 70° N 02:13:29 22° E
Cosmos 1782 Rocket 3.4 02:09:31 10° S 02:13:51 83° E 02:18:14 10° N
Meteor 1-21 Rocket 4.4 02:09:46 10° N 02:15:37 60° E 02:20:11 17° SSE
PAYLOAD B 4.4 02:10:42 10° S 02:16:12 73° WSW 02:21:46 10° NNW
DELTA 2 R/B (1) 3.5 02:11:46 10° WNW 02:17:24 84° NNE 02:20:22 29° ESE
USA 186 1.5 02:16:16 32° SSE 02:17:34 81° ENE 02:20:37 10° N
Cosmos 1892 2.9 02:14:49 10° NNW 02:18:21 63° W 02:21:36 11° S
CZ-4 R/B 2.2 02:18:31 10° S 02:22:23 49° W 02:26:12 10° NNW
ATLAS 5 CENTAUR R/B 0.6 02:19:12 10° SSW 02:22:29 72° ESE 02:25:53 10° NE
Delta 2 Rocket 4.4 02:17:38 10° WSW 02:24:10 46° S 02:26:51 29° SE
SPOT 5 4.5 02:24:44 20° ENE 02:24:57 20° ENE 02:28:47 10° NNE
Cosmos 1455 3.2 02:23:06 10° SSW 02:26:30 44° W 02:29:56 10° N
Cosmos 864 Rocket 4.4 02:22:10 10° N 02:28:25 81° E 02:34:03 13° S
Cosmos 968 Rocket 3.5 02:23:34 10° NNW 02:28:41 77° WSW 02:32:17 20° S
Feng Yun 1-1 Rocket 4.2 02:28:09 16° SSE 02:32:34 86° WSW 02:38:10 10° NNW
CSL-04 Debris 4.2 02:34:11 20° S 02:38:02 84° WSW 02:43:30 10° NNW
Cosmos 1300 Rocket 4.0 02:36:02 10° SSW 02:40:17 59° W 02:44:37 10° N
CSL-04 Rocket 3.8 02:45:00 23° S 02:48:31 73° WSW 02:54:01 10° NNW
In-Cosmos 22 Rocket 4.0 02:47:57 10° N 02:53:24 78° E 02:54:49 51° SSE
SJ 16-02 1.3 02:49:18 10° NNW 02:53:37 75° WSW 02:54:06 65° SSW
OAO 1 Rocket 4.5 02:48:39 10° W 02:53:58 76° N 02:55:16 52° ENE
CZ-4C R/B 3.9 02:53:55 10° N 02:56:35 45° NNW 02:56:35 45° NNW
NOSS 3-1 (A) 2.7 02:57:13 10° SSW 03:01:54 88° WNW 03:07:17 10° NNE
Cosmos 2098 Rocket 4.2 02:57:19 10° SSW 03:02:56 53° W 03:07:36 10° N
MetOp-B 4.4 03:05:02 50° NE 03:05:02 50° NE 03:09:46 10° N
Okean-O 2.7 03:06:02 70° N 03:06:02 70° N 03:09:58 10° NNW
Terra 3.7 03:09:26 18° NNE 03:09:26 18° NNE 03:11:08 10° NNE
Atlas Centaur 2 4.0 03:04:54 10° SW 03:05:22 12° SSW 03:05:22 12° SSW
USA 234 3.6 03:15:42 43° S 03:17:29 56° SW 03:23:54 10° NW
Hubble Space Telescope 2.9 03:15:10 10° WSW 03:16:32 19° WSW 03:16:32 19° WSW
Cosmos 1833 4.2 03:14:00 10° NNW 03:19:37 72° WSW 03:19:59 69° SW
IRS-1A Rocket 4.5 03:20:51 61° NE 03:20:51 61° NE 03:26:13 10° N
Milstar 3 4.4 03:17:19 10° WSW 03:28:00 71° S 03:37:38 36° E
Okean O Rocket 3.6 03:26:49 20° WSW 03:28:03 22° W 03:31:27 10° NW
Resurs 01 Rocket 3.9 03:32:30 16° WSW 03:33:55 19° W 03:37:03 10° NW
ATLAS 3B R/B 3.8 03:40:10 10° SW 03:46:43 44° NW 03:53:46 10° NNE
USA 281 4.0 03:46:26 39° SW 03:47:40 43° WSW 03:53:52 10° NW
Centaur D-1AR AC-36 4.1 03:47:21 10° SW 04:13:23 20° E 04:40:28 10° E
Centaur D-1AR AC-36 4.1 03:47:22 10° SW 04:13:23 20° E 04:40:28 10° E
Centaur D-1AR AC-36 4.1 03:47:22 10° SW 04:13:23 20° E 04:40:27 10° E
SPOT 5 4.4 04:03:53 36° WNW 04:03:53 36° WNW 04:07:38 10° NNW
CZ-4C R/B 4.4 04:31:25 10° N 04:36:24 26° NE 04:36:24 26° NE
Cosmos 2297 Rocket 4.3 04:39:35 10° NNW 04:41:24 21° NNW 04:41:24 21° NNW
Cosmos 2237 Rocket 4.5 08:16:42 18° ENE 08:16:42 18° ENE 08:18:58 10° NE
Resurs 1-4 Rocket 4.2 08:28:24 10° N 08:30:10 22° N 08:30:10 22° N
H-2A R/B 4.4 08:46:24 37° SSE 08:46:24 37° SSE 09:05:04 10° ESE
Cosmos 2278 Rocket 4.3 08:48:18 10° N 08:52:49 24° ENE 08:57:17 10° ESE
Cosmos 2219 Rocket 4.3 08:55:50 18° NNW 08:55:50 18° NNW 08:57:37 10° N
SL-16 R/B 4.5 09:03:21 13° SE 09:05:28 16° E 09:08:45 10° ENE
CZ-2C R/B 4.2 09:09:09 10° NE 09:13:28 26° E 09:14:38 24° ESE
BREEZE-M DEB (TANK) 4.1 09:13:45 71° WSW 09:14:46 83° NW 09:40:54 10° NE
Meteor 1-19 Rocket 4.4 09:20:01 72° NE 09:20:01 72° NE 09:25:26 10° N
ADEOS II 3.6 09:15:03 10° N 09:17:38 27° NNW 09:17:38 27° NNW
Cosmos 923 Rocket 4.5 09:23:19 58° NE 09:23:19 58° NE 09:27:34 10° NNE
Cosmos 1092 Rocket 3.9 09:24:59 75° SE 09:25:16 77° E 09:31:25 10° N
Cosmos 2026 Rocket 3.9 09:32:11 77° S 09:32:42 89° E 09:39:03 10° N
CZ-2D R/B 4.1 09:29:07 10° NNW 09:30:50 17° NW 09:30:50 17° NW
BREEZE-M DEB (TANK) 3.5 09:34:04 62° NW 09:34:14 62° NW 09:37:48 10° NE
Envisat 3.3 09:29:29 10° NNE 09:34:30 58° E 09:34:51 56° ESE
SL-16 R/B 2.6 09:36:56 58° WNW 09:36:56 58° WNW 09:42:11 10° NNW
EO 1 Delta rocket 4.1 09:37:58 10° N 09:41:49 63° N 09:41:49 63° N
Meteor 1-27 Rocket 4.1 09:46:39 50° WNW 09:46:39 50° WNW 09:51:38 10° N
Meteor 2-4 Rocket 3.9 09:48:37 41° SSE 09:50:25 65° E 09:55:49 10° NNE
CZ-4 R/B 3.9 09:45:47 10° N 09:49:59 66° NNW 09:49:59 66° NNW
COSMOS 2428 4.5 09:52:37 18° NW 09:52:37 18° NW 09:55:35 10° NNW
Cosmos 1943 Rocket 3.4 09:46:48 10° N 09:52:10 42° ENE 09:57:29 10° SE
Thor Agena Rocket 3.8 09:47:17 10° NNE 09:52:17 63° ESE 09:53:50 42° SSE
Cosmos 1627 Rocket 4.5 09:53:01 58° WSW 09:53:44 62° W 10:00:02 10° N
YAOGAN 6 3.9 09:50:49 10° NNE 09:53:02 35° NE 09:53:02 35° NE
H-2A R/B 4.4 09:52:25 10° NE 09:55:59 19° E 09:59:36 10° SE
Cosmos 2237 Rocket 2.7 09:58:31 41° WNW 09:58:31 41° WNW 10:03:48 10° N
Cosmos 1980 4.4 09:59:54 37° WNW 09:59:54 37° WNW 10:05:00 10° N
NOAA 11 4.1 09:55:00 10° NNE 10:00:27 88° ESE 10:02:18 44° SSW
Cosmos 2112 Rocket 3.9 10:01:07 63° SW 10:01:52 74° WNW 10:07:12 10° NNE
Cosmos 1340 Rocket 3.2 10:04:12 49° NNW 10:04:12 49° NNW 10:07:08 10° N
ALOS 3.8 09:59:55 10° NNW 10:02:16 22° NW 10:02:16 22° NW
Cosmos 1867 3.5 10:00:35 10° NW 10:05:59 63° WSW 10:11:20 10° SSE
Cosmos 1328 Rocket 3.5 10:08:29 54° S 10:09:28 87° E 10:13:54 10° N
ATLAS 2AS CENTAUR R/B 2.8 10:07:19 35° SSW 10:10:53 86° WNW 10:18:12 10° NNE
Cosmos 1805 3.1 10:09:32 10° N 10:13:13 82° E 10:13:52 59° SSE
Delta 128 4.0 10:17:14 41° S 10:17:18 41° S 10:21:33 10° ESE
Meteor 2-9 Rocket 4.5 10:12:17 10° NNW 10:17:20 41° W 10:17:38 41° WSW
Chandra Rocket (1) 2.5 10:18:55 34° SSE 10:19:00 34° SSE 10:23:57 10° E
IRS-1D 3.5 10:18:30 10° N 10:23:35 67° WNW 10:26:05 30° SSW
Cosmos 1633 Rocket 3.2 10:19:31 10° N 10:23:52 73° E 10:28:11 10° SSE
CSL-04 DEB 4.3 10:19:49 10° N 10:23:59 81° WNW 10:25:35 37° SSW
Cosmos 2266 Rocket 4.3 10:22:10 10° S 10:28:13 66° E 10:34:12 10° NNE
Cosmos 1680 Rocket 4.3 10:28:08 31° W 10:29:02 33° WNW 10:33:49 10° N
ASC 2 Rocket 4.4 10:32:35 25° SSW 10:34:12 30° S 10:39:36 10° ESE
Iridium 51 3.7 10:33:29 27° S 10:35:13 86° W 10:38:35 10° N
Cosmos 2278 Rocket 2.5 10:31:43 10° NW 10:36:58 40° WSW 10:42:12 10° S
NOSS 2-2 (C) 4.3 10:32:48 10° NNW 10:38:00 85° WSW 10:45:29 10° SSE
Cosmos 1461 2.8 10:38:29 10° NW 10:42:07 45° WSW 10:45:45 10° S
USA 308 3.0 10:41:22 34° W 10:42:30 47° NW 10:46:17 10° NNE
Cosmos 1674 3.2 10:40:00 10° S 10:43:19 51° E 10:46:39 10° NNE
Cosmos 1420 Rocket 3.9 10:38:09 10° NNW 10:43:24 75° WSW 10:48:39 10° S
Delta 2 Rocket 4.5 10:40:59 23° SSW 10:43:38 42° SSE 10:48:04 10° E
Cosmos 494 Rocket 3.9 10:42:24 17° SSW 10:46:22 69° WNW 10:51:30 10° NNE
ATLAS 5 CENTAUR R/B 3.3 10:42:33 20° WSW 10:46:41 27° SSW 10:50:39 10° SE
Cosmos 2056 Rocket 3.5 10:42:00 10° NNW 10:47:25 83° WSW 10:52:49 10° SSE
SL-16 R/B 2.3 10:45:14 20° SW 10:49:00 54° WNW 10:54:33 10° N
Cosmos 2344 4.5 10:41:03 10° NW 10:50:27 59° WSW 11:03:39 10° S
Sakura Rocket 4.1 10:50:19 19° SSW 10:50:37 19° SSW 10:53:20 10° SSE
CZ-2C R/B 3.4 10:47:02 10° N 10:51:28 30° WNW 10:53:57 20° WSW
Cosmos 1626 2.6 10:51:53 28° W 10:52:24 30° W 10:55:21 10° NNW
Cosmos 1766 3.2 10:49:35 10° N 10:53:16 76° E 10:56:56 10° S
Cosmos 1939 Rocket 3.6 10:50:07 10° NNE 10:53:46 49° E 10:57:27 10° S
Cosmos 921 Rocket 4.1 10:53:25 22° W 10:54:37 25° WNW 10:58:10 10° NNW
KORONAS-FOTON 4.1 10:51:48 10° S 10:55:26 65° E 10:59:03 10° NNE
Cosmos 1340 2.9 10:52:14 10° NNW 10:55:26 36° W 10:58:35 10° SSW
Cosmos 1553 Rocket 4.2 10:51:47 10° NNW 10:57:44 48° W 11:03:35 10° SSW
Cosmos 1515 Rocket 3.7 10:54:55 10° SSW 10:59:16 54° W 11:03:38 10° N
Cosmos 1624 Rocket 3.9 10:54:34 10° NNW 10:59:44 63° WSW 11:04:49 10° S
Cosmos 1975 3.7 10:56:48 10° NNW 11:00:04 26° W 11:02:30 15° SW
ASTRO E2 3.3 11:00:59 18° SW 11:03:06 36° SSE 11:06:23 10° E
Cosmos 1484 Rocket 2.7 11:05:08 10° N 11:08:37 52° WNW 11:12:05 10° SSW
Cosmos 1470 Rocket 3.7 11:05:46 10° NNW 11:10:02 51° W 11:14:18 10° SSW
CBERS-1 4.1 11:08:37 10° N 11:13:36 56° WNW 11:18:32 10° SSW
ATLAS 5 CENTAUR R/B 3.5 11:08:35 10° NNW 11:13:47 46° ENE 11:20:03 10° SE
H-2A R/B 2.4 11:12:07 10° NNE 11:15:28 86° ESE 11:18:46 10° S
CZ-3 R/B 3.3 11:01:21 12° WSW 11:20:32 50° S 11:26:59 10° E
In-Cosmos 22 4.4 11:18:11 10° S 11:23:30 74° E 11:28:59 10° NNE
YAOGAN 11 4.1 11:23:45 10° S 11:28:11 69° W 11:32:40 10° NNW
Cosmos 1842 3.9 11:26:34 10° SW 11:29:54 31° W 11:33:15 10° NNW
USA 290 2.1 11:27:45 10° NNW 11:30:47 58° WSW 11:33:47 10° S
COSMO-SKYMED 1 3.8 11:27:01 10° SSE 11:31:10 47° ENE 11:35:20 10° N
BlueWalker 3 1.8 11:30:02 10° NW 11:33:50 77° SW 11:37:37 10° SE
IRS-1C 4.2 11:28:30 10° NNE 11:33:51 89° WNW 11:39:10 10° SSW
H-2A R/B 2.6 11:30:46 10° N 11:35:24 39° WNW 11:40:09 10° SW
Cosmos 1943 Rocket 3.3 11:31:20 10° NW 11:35:32 22° W 11:39:42 10° SSW
